Wind_Speed
12 11 12 13 11 8 8 3 2 1 4 7 10 13 14 14 11 13 17 18 20 23 26 29 33 36 39 42 44 45 46 47
6 5 5 5 5 5 2 1 4 6 8 10 12 12 11 11 14 18 20 23 26 29 32 35 38 40 43 45 47 48 48 49
8 6 4 3 3 3 3 5 6 9 8 10 10 10 11 15 17 21 25 28 32 34 37 40 42 44 47 49 50 51 52 55
4 5 4 4 5 6 6 7 9 9 8 8 9 12 15 19 22 27 30 34 37 39 42 44 46 48 50 52 54 54 54 55
5 5 7 7 7 11 12 11 9 8 8 11 14 17 20 25 28 32 35 38 41 44 47 48 50 50 49 51 54 56 59 58
7 8 10 8 8 11 10 10 9 10 13 15 17 23 26 30 33 36 38 43 45 47 48 49 51 49 46 53 54 58 63 61
9 8 11 12 10 9 8 9 10 13 16 19 23 27 31 35 38 40 44 46 48 48 45 47 51 47 50 57 62 64 65 63
7 7 8 8 8 9 10 11 15 17 20 24 27 31 36 40 42 45 47 46 48 45 45 51 46 55 60 66 70 65 67 68
6 6 6 7 10 12 14 16 18 21 24 28 31 36 41 44 45 47 48 48 47 50 44 56 59 60 65 69 75 69 76 76
8 8 9 11 13 15 18 21 23 26 30 34 38 42 45 46 47 49 47 53 55 51 49 64 56 65 68 70 70 76 79 76
10 10 12 14 16 19 22 25 29 32 37 41 44 47 45 45 50 48 47 46 51 53 62 58 59 71 66 76 74 75 76 77
12 13 16 18 19 23 27 31 35 39 43 44 39 40 46 49 53 47 51 54 49 63 59 59 62 66 71 74 74 75 78 81
19 20 22 23 24 28 32 36 40 43 39 39 40 45 46 47 46 51 61 56 60 59 61 62 64 68 70 73 75 78 82 84
25 27 26 26 31 34 34 37 37 38 40 40 38 42 47 51 55 56 56 59 60 62 62 65 66 68 71 74 79 81 84 88
25 26 29 32 32 33 34 36 37 38 38 36 42 44 48 52 57 60 60 60 61 63 65 66 69 71 76 81 83 86 87 84
27 29 31 32 32 33 32 36 36 36 37 41 42 51 56 58 57 58 60 61 63 64 66 69 73 76 78 80 83 88 88 86
30 33 33 33 32 33 36 36 38 35 37 45 54 53 52 57 56 59 63 64 64 64 70 71 76 81 82 84 87 91 83 79
32 34 36 35 36 39 42 43 44 42 44 50 50 52 54 56 59 61 62 63 66 64 73 77 78 79 82 86 89 81 76 70
34 36 36 37 40 43 44 46 48 48 47 48 51 53 56 58 59 61 63 65 68 71 74 75 76 79 82 82 79 74 69 64
Wind_Direction
146 149 159 171 167 154 171 174 111 158 273 286 276 271 275 289 290 292 293 298 299 301 300 300 299 299 300 299 302 303 303 303
141 147 151 159 164 164 159 345 297 284 287 289 276 282 284 286 288 294 296 298 296 296 297 299 300 301 300 301 303 304 304 302
132 143 148 160 195 192 241 280 260 282 281 282 277 266 274 283 291 289 291 293 295 299 301 301 301 303 304 305 306 307 305 306
149 154 164 222 256 274 278 260 257 259 270 268 276 280 288 289 290 292 295 299 303 304 303 303 303 305 307 308 308 308 308 308
191 205 223 235 239 250 262 276 274 278 275 277 288 292 292 292 295 298 301 303 302 302 303 306 308 308 309 310 309 308 309 307
209 222 234 227 251 260 262 261 262 256 267 276 288 292 293 296 297 300 303 301 302 305 307 309 308 303 303 308 304 305 307 303
212 219 233 241 236 244 248 247 260 267 278 289 291 294 296 297 299 302 301 303 308 307 305 312 302 292 290 307 309 303 302 302
197 196 209 228 238 241 247 263 276 284 288 292 295 297 296 297 301 303 305 307 309 311 301 307 304 289 293 302 309 308 307 305
243 233 240 257 263 276 273 279 283 287 295 296 295 295 297 300 302 303 301 306 313 308 310 299 304 298 291 295 305 301 305 306
251 261 270 281 281 291 285 294 298 298 295 295 297 297 298 298 296 300 304 311 313 302 309 299 301 298 293 301 304 299 302 304
255 268 279 284 291 294 294 294 296 298 296 296 298 298 297 293 305 303 308 299 305 288 298 304 294 303 297 300 302 301 301 301
265 275 279 286 288 288 292 295 296 295 295 297 298 295 296 298 297 296 300 299 294 294 299 298 297 294 296 299 300 300 299 299
265 273 282 285 284 288 291 291 293 294 297 296 294 289 290 292 290 297 301 300 299 302 300 302 299 300 301 301 302 301 301 303
263 277 283 274 277 279 279 286 290 288 285 288 286 285 289 290 290 291 296 299 301 302 303 302 302 300 301 302 303 303 304 304
273 277 277 276 279 282 282 273 292 291 286 287 290 287 286 286 293 295 298 302 302 303 302 303 302 302 302 301 302 304 306 308
277 279 282 284 289 281 279 280 269 275 276 285 285 285 291 291 295 299 302 302 303 303 303 302 303 304 303 302 304 307 309 309
282 285 288 294 287 286 296 293 291 285 286 285 290 289 287 299 301 299 301 303 303 304 304 301 297 299 300 301 303 308 311 314
288 290 294 294 297 298 301 303 301 290 285 293 295 299 300 300 300 301 303 303 305 301 298 300 300 301 301 302 305 310 314 315
289 290 292 295 298 301 301 300 299 299 299 299 299 299 300 301 303 304 304 306 300 299 300 303 304 303 303 305 308 314 316 314
Height
5774 5776 5778 5778 5780 5781 5783 5783 5783 5785 5787 5785 5786 5787 5787 5786 5786 5787 5786 5783 5783 5781 5779 5776 5772 5769 5764 5760 5755 5751 5746 5741
5774 5776 5778 5779 5780 5781 5781 5781 5783 5783 5783 5782 5783 5783 5783 5783 5783 5781 5780 5779 5778 5777 5773 5769 5765 5760 5756 5750 5745 5740 5734 5729
5776 5777 5777 5776 5776 5777 5778 5779 5780 5779 5778 5779 5779 5781 5780 5779 5779 5779 5778 5775 5773 5770 5765 5760 5756 5750 5745 5739 5734 5728 5723 5717
5775 5775 5774 5774 5775 5774 5774 5776 5776 5775 5775 5776 5776 5776 5775 5775 5775 5773 5770 5767 5763 5759 5755 5751 5746 5740 5733 5727 5721 5716 5710 5704
5773 5773 5773 5772 5772 5771 5770 5771 5771 5771 5771 5772 5772 5772 5772 5771 5769 5765 5761 5758 5754 5750 5745 5740 5733 5727 5721 5716 5710 5704 5698 5692
5771 5771 5770 5768 5769 5768 5768 5768 5767 5768 5769 5770 5769 5769 5767 5764 5761 5757 5753 5750 5745 5740 5733 5727 5721 5716 5711 5707 5701 5695 5689 5682
5768 5766 5766 5764 5764 5765 5765 5766 5766 5765 5765 5765 5765 5763 5760 5756 5753 5748 5745 5741 5735 5729 5722 5716 5710 5703 5699 5695 5691 5684 5677 5669
5762 5761 5762 5762 5761 5762 5762 5762 5763 5763 5763 5760 5758 5755 5753 5748 5744 5739 5734 5730 5724 5718 5712 5707 5703 5695 5687 5682 5676 5668 5660 5654
5758 5758 5759 5759 5759 5758 5757 5759 5759 5758 5756 5754 5752 5748 5744 5739 5734 5729 5725 5719 5714 5707 5702 5695 5691 5684 5677 5670 5662 5654 5646 5638
5756 5756 5756 5756 5755 5754 5753 5753 5752 5751 5750 5746 5743 5739 5735 5730 5726 5721 5714 5707 5701 5695 5690 5686 5679 5671 5664 5655 5647 5638 5631 5623
5753 5753 5752 5752 5750 5749 5748 5748 5747 5744 5741 5737 5733 5729 5725 5721 5715 5709 5704 5697 5694 5688 5682 5673 5667 5657 5650 5641 5634 5626 5617 5607
5749 5749 5749 5747 5746 5745 5743 5741 5738 5736 5732 5729 5724 5720 5716 5710 5704 5699 5695 5689 5685 5677 5669 5662 5655 5646 5638 5630 5620 5611 5601 5591
5745 5745 5744 5742 5740 5739 5738 5734 5731 5726 5723 5719 5716 5711 5706 5700 5694 5689 5684 5678 5672 5662 5656 5648 5639 5632 5625 5616 5606 5596 5586 5576
5740 5739 5738 5736 5735 5732 5730 5726 5723 5719 5715 5711 5706 5701 5696 5691 5685 5680 5674 5667 5658 5649 5642 5634 5627 5618 5609 5600 5590 5579 5569 5558
5733 5732 5730 5728 5726 5723 5720 5717 5714 5710 5704 5699 5696 5691 5686 5681 5676 5670 5661 5653 5645 5637 5629 5621 5612 5602 5593 5583 5573 5562 5551 5540
5724 5723 5722 5720 5717 5713 5711 5707 5703 5698 5694 5691 5687 5681 5676 5669 5663 5655 5647 5639 5631 5623 5616 5606 5596 5586 5577 5567 5556 5545 5533 5521
5716 5714 5712 5709 5706 5703 5701 5697 5693 5690 5687 5683 5677 5670 5664 5657 5650 5641 5633 5625 5617 5609 5600 5590 5581 5571 5561 5550 5538 5527 5515 5504
5706 5704 5701 5698 5695 5692 5689 5686 5683 5680 5675 5670 5663 5657 5650 5644 5636 5628 5620 5611 5602 5594 5585 5575 5564 5554 5544 5533 5521 5510 5499 5488
5697 5695 5692 5689 5686 5683 5679 5675 5671 5666 5661 5655 5649 5643 5637 5629 5621 5613 5605 5595 5587 5578 5569 5558 5548 5536 5526 5515 5504 5494 5484 5474